When you browse on this site, cookies collect data to enhance your experience and personalize the content and advertising you see.
Visit our Privacy Policy to learn more. By continuing to use the site, you agree to this use of cookies and data.
EN

Hourly Weather Postolivka

Today, 23 September, Wednesday

Time Temperature Precipitation Wind Pressure Humidity
00:00 +14°C° 0 mm 4 mps 738 mmHg 38%
01:00 +13°C° 0 mm 4 mps 738 mmHg 40%
02:00 +13°C° 0 mm 4 mps 738 mmHg 43%
03:00 +12°C° 0 mm 4 mps 738 mmHg 46%
04:00 +11°C° 0 mm 3 mps 737 mmHg 50%
05:00 +11°C° 0 mm 3 mps 737 mmHg 54%
06:00 +12°C° 0 mm 4 mps 737 mmHg 58%
07:00 +13°C° 0 mm 4 mps 737 mmHg 61%
08:00 +14°C° 0 mm 5 mps 737 mmHg 63%
09:00 +16°C° 0 mm 5 mps 737 mmHg 59%
10:00 +19°C° 0 mm 5 mps 737 mmHg 54%
11:00 +20°C° 0 mm 5 mps 737 mmHg 49%
12:00 +21°C° 0 mm 5 mps 736 mmHg 47%
13:00 +22°C° 0 mm 5 mps 736 mmHg 45%
14:00 +25°C° 0 mm 5 mps 736 mmHg 44%
15:00 +23°C° 0 mm 4 mps 735 mmHg 46%
16:00 +22°C° 0 mm 4 mps 735 mmHg 48%
17:00 +22°C° 0 mm 3 mps 734 mmHg 49%
18:00 +20°C° 0 mm 3 mps 734 mmHg 51%
19:00 +18°C° 0 mm 3 mps 735 mmHg 52%
20:00 +17°C° 0 mm 3 mps 735 mmHg 53%
21:00 +16°C° 0 mm 3 mps 735 mmHg 52%
22:00 +16°C° 0 mm 3 mps 734 mmHg 50%
23:00 +14°C° 0 mm 3 mps 734 mmHg 49%

Tomorrow, 24 September, Thursday

Time Temperature Precipitation Wind Pressure Humidity
00:00 +14°C° 0 mm 3 mps 734 mmHg 50%
01:00 +13°C° 0 mm 3 mps 734 mmHg 51%
02:00 +13°C° 0 mm 3 mps 734 mmHg 52%
03:00 +13°C° 0 mm 3 mps 734 mmHg 52%
04:00 +12°C° 0 mm 3 mps 734 mmHg 52%
05:00 +12°C° 0 mm 3 mps 734 mmHg 52%
06:00 +13°C° 0 mm 3 mps 734 mmHg 53%
07:00 +14°C° 0 mm 3 mps 734 mmHg 53%
08:00 +15°C° 0 mm 4 mps 734 mmHg 54%
09:00 +17°C° 0 mm 4 mps 734 mmHg 54%
10:00 +19°C° 0 mm 4 mps 734 mmHg 53%
11:00 +21°C° 0 mm 4 mps 735 mmHg 53%
12:00 +22°C° 0 mm 3 mps 734 mmHg 50%
13:00 +24°C° 0 mm 3 mps 734 mmHg 48%
14:00 +26°C° 0 mm 3 mps 734 mmHg 45%
15:00 +25°C° 0 mm 2 mps 734 mmHg 48%
16:00 +25°C° 0 mm 2 mps 734 mmHg 50%
17:00 +24°C° 0 mm 2 mps 734 mmHg 53%
18:00 +22°C° 0 mm 1 mps 734 mmHg 57%
19:00 +21°C° 0 mm 1 mps 734 mmHg 62%
20:00 +19°C° 0 mm 1 mps 734 mmHg 66%
21:00 +19°C° 0 mm 1 mps 734 mmHg 67%
22:00 +19°C° 0 mm 1 mps 734 mmHg 68%
23:00 +18°C° 0 mm 1 mps 734 mmHg 69%

Day after tomorrow, 25 September, Friday

Time Temperature Precipitation Wind Pressure Humidity
00:00 +18°C° 0 mm 1 mps 734 mmHg 70%
01:00 +16°C° 0 mm 2 mps 734 mmHg 71%
02:00 +16°C° 0 mm 2 mps 733 mmHg 71%
03:00 +16°C° 0.1 mm 2 mps 733 mmHg 74%
04:00 +15°C° 0.1 mm 2 mps 733 mmHg 77%
05:00 +15°C° 0.1 mm 2 mps 732 mmHg 79%
06:00 +16°C° 0.1 mm 3 mps 732 mmHg 81%
07:00 +16°C° 0.1 mm 3 mps 732 mmHg 82%
08:00 +17°C° 0.1 mm 4 mps 732 mmHg 83%
09:00 +19°C° 0 mm 4 mps 732 mmHg 76%
10:00 +21°C° 0 mm 5 mps 732 mmHg 68%
11:00 +23°C° 0 mm 5 mps 732 mmHg 61%
12:00 +25°C° 0 mm 5 mps 731 mmHg 57%
13:00 +26°C° 0 mm 5 mps 731 mmHg 54%
14:00 +27°C° 0 mm 5 mps 730 mmHg 50%
15:00 +26°C° 0.5 mm 5 mps 730 mmHg 54%
16:00 +25°C° 0.5 mm 4 mps 729 mmHg 59%
17:00 +23°C° 0.5 mm 4 mps 729 mmHg 63%
18:00 +22°C° 0.1 mm 4 mps 729 mmHg 65%
19:00 +21°C° 0.1 mm 4 mps 729 mmHg 67%
20:00 +20°C° 0.1 mm 4 mps 729 mmHg 69%
21:00 +19°C° 0.2 mm 4 mps 729 mmHg 70%
22:00 +19°C° 0.2 mm 4 mps 728 mmHg 72%
23:00 +18°C° 0.2 mm 4 mps 728 mmHg 73%

26 September, Saturday

Time Temperature Precipitation Wind Pressure Humidity
00:00 +17°C° 0 mm 5 mps 728 mmHg 76%
01:00 +17°C° 0 mm 5 mps 728 mmHg 78%
02:00 +17°C° 0 mm 6 mps 727 mmHg 81%
03:00 +16°C° 0 mm 6 mps 727 mmHg 83%
04:00 +16°C° 0 mm 6 mps 727 mmHg 84%
05:00 +16°C° 0 mm 6 mps 727 mmHg 86%
06:00 +16°C° 0 mm 7 mps 727 mmHg 83%
07:00 +17°C° 0 mm 8 mps 727 mmHg 80%
08:00 +17°C° 0 mm 8 mps 727 mmHg 77%
09:00 +19°C° 0 mm 9 mps 727 mmHg 70%
10:00 +22°C° 0 mm 10 mps 727 mmHg 62%
11:00 +24°C° 0 mm 10 mps 727 mmHg 55%
12:00 +24°C° 0 mm 10 mps 726 mmHg 53%
13:00 +26°C° 0 mm 10 mps 726 mmHg 51%
14:00 +26°C° 0 mm 10 mps 726 mmHg 48%
15:00 +26°C° 0 mm 8 mps 725 mmHg 50%
16:00 +24°C° 0 mm 7 mps 725 mmHg 52%
17:00 +23°C° 0 mm 6 mps 725 mmHg 53%
18:00 +23°C° 0.1 mm 6 mps 724 mmHg 53%
19:00 +23°C° 0.1 mm 7 mps 724 mmHg 52%
20:00 +22°C° 0.1 mm 8 mps 724 mmHg 52%
21:00 +22°C° 0 mm 8 mps 724 mmHg 54%
22:00 +21°C° 0 mm 8 mps 723 mmHg 56%
23:00 +21°C° 0 mm 9 mps 723 mmHg 58%

27 September, Sunday

Time Temperature Precipitation Wind Pressure Humidity
00:00 +19°C° 0.2 mm 9 mps 723 mmHg 66%
01:00 +18°C° 0.2 mm 9 mps 722 mmHg 74%
02:00 +18°C° 0.2 mm 9 mps 722 mmHg 82%
03:00 +18°C° 0.5 mm 9 mps 722 mmHg 82%
04:00 +17°C° 0.5 mm 9 mps 722 mmHg 82%
05:00 +17°C° 0.5 mm 9 mps 721 mmHg 82%
06:00 +17°C° 1.6 mm 9 mps 721 mmHg 84%
07:00 +17°C° 1.6 mm 10 mps 721 mmHg 87%
08:00 +16°C° 1.6 mm 10 mps 721 mmHg 89%
09:00 +17°C° 2.1 mm 9 mps 721 mmHg 85%
10:00 +18°C° 2.1 mm 9 mps 722 mmHg 82%
11:00 +18°C° 2.1 mm 8 mps 722 mmHg 78%
12:00 +17°C° 0.7 mm 8 mps 723 mmHg 79%
13:00 +16°C° 0.7 mm 7 mps 723 mmHg 80%
14:00 +14°C° 0.7 mm 7 mps 724 mmHg 81%
15:00 +12°C° 0.1 mm 7 mps 724 mmHg 82%
16:00 +11°C° 0.1 mm 7 mps 725 mmHg 83%
17:00 +10°C° 0.1 mm 7 mps 726 mmHg 85%
18:00 +10°C° 0.1 mm 6 mps 726 mmHg 84%
19:00 +10°C° 0.1 mm 6 mps 727 mmHg 84%
20:00 +10°C° 0.1 mm 5 mps 728 mmHg 84%
21:00 +10°C° 0.1 mm 5 mps 729 mmHg 85%
22:00 +10°C° 0.1 mm 4 mps 730 mmHg 85%
23:00 +10°C° 0.1 mm 3 mps 730 mmHg 86%

28 September, Monday

Time Temperature Precipitation Wind Pressure Humidity
00:00 +10°C° 0 mm 3 mps 731 mmHg 88%
01:00 +10°C° 0 mm 3 mps 731 mmHg 90%
02:00 +9°C° 0 mm 3 mps 731 mmHg 92%
03:00 +9°C° 0 mm 2 mps 731 mmHg 92%
04:00 +9°C° 0 mm 2 mps 732 mmHg 92%
05:00 +8°C° 0 mm 2 mps 732 mmHg 92%
06:00 +9°C° 0 mm 2 mps 732 mmHg 87%
07:00 +10°C° 0 mm 3 mps 732 mmHg 83%
08:00 +11°C° 0 mm 3 mps 732 mmHg 79%
09:00 +12°C° 0 mm 3 mps 732 mmHg 72%
10:00 +13°C° 0 mm 4 mps 732 mmHg 65%
11:00 +15°C° 0 mm 4 mps 732 mmHg 59%
12:00 +15°C° 0 mm 5 mps 732 mmHg 57%
13:00 +16°C° 0 mm 5 mps 732 mmHg 55%
14:00 +16°C° 0 mm 5 mps 732 mmHg 54%
15:00 +17°C° 0 mm 4 mps 731 mmHg 59%
16:00 +16°C° 0 mm 3 mps 731 mmHg 64%
17:00 +15°C° 0 mm 2 mps 731 mmHg 68%
18:00 +15°C° 0.7 mm 2 mps 730 mmHg 76%
19:00 +14°C° 0.7 mm 2 mps 730 mmHg 84%
20:00 +14°C° 0.7 mm 2 mps 730 mmHg 92%
21:00 +14°C° 0.6 mm 2 mps 730 mmHg 93%
22:00 +14°C° 0.6 mm 2 mps 730 mmHg 95%
23:00 +14°C° 0.6 mm 2 mps 730 mmHg 96%
Show more